Location: Newark
(41.6500°N, 71.4833°W)
Time: 11:29:45
(UTC+00:00)

Courier 1B - Pass Details

Date: 21 January 2020
Orbit: 962 x 1209 km, 28.3° (Epoch: 22 February)

Event Time Altitude Azimuth Distance (km) Brightness Sun altitude
Rises 12:16:38 0° 255° (WSW) 4,076 10.3 0.7°
Reaches altitude 10° 12:19:56 10° 244° (WSW) 3,129 9.8 1.2°
Maximum altitude 12:26:13 27° 191° (S) 2,127 9.6 2.3°
Drops below altitude 10° 12:32:31 10° 137° (SE) 3,124 12.0 3.3°
Sets 12:35:49 0° 125° (SE) 4,067 13.7 3.8°
